Location: Newark
(49.8753°N, 23.0797°E)
Time: 03:25:22
(UTC+00:00)

X-37B - Pass Details

Date: 02 July 2021
Orbit: 383 x 392 km, 45.0° (Epoch: 01 July)

Event Time Altitude Azimuth Distance (km) Brightness Sun altitude
Rises 19:49:43 0° 267° (W) 2,260 5.0 -8.8°
Reaches altitude 10° 19:52:07 10° 249° (WSW) 1,403 3.6 -9.0°
Maximum altitude 19:54:30 20° 200° (SSW) 963 2.3 -9.2°
Enters shadow 19:56:15 13° 160° (SSE) 1,217 2.5 -9.4°
